{"data":{"norad_id":65229,"intl_designator":"2025-178B","name":"HULIANWANG DIGUI-69","alt_names":[],"object_type":"PAYLOAD","status":"ACTIVE","operator":null,"country":"PRC","launch_date":"2025-08-17","launch_site_code":"TAISC","launch_vehicle":null,"mission":null,"orbit_class":"UNKNOWN","rcs_meters":null,"size_class":null,"mass_kg":null,"dimensions":null,"purposes":[],"wikipedia_slug":null,"has_3d_model":false,"image_url":null,"decayed_at":null,"tle_current":{"epoch":"2026-09-21T21:36:08.773056Z","epoch_age_seconds":41306,"freshness":"FRESH","line1":"1 65229U 25178B   26264.90010154  .00000012  00000+0 -54859-5 0  9996","line2":"2 65229  86.5055 340.9785 0001691 105.6260 254.5060 13.24415395 53117","mean_motion":13.24415395,"eccentricity":0.0001691,"inclination_deg":86.5055,"raan_deg":340.9785,"arg_perigee_deg":105.626,"mean_anomaly_deg":254.506,"bstar":-5.4859e-6,"rev_number":5311,"period_min":108.72721696202,"perigee_km":1166.6256579117,"apogee_km":1169.1777281977,"semimajor_km":7546.0386930547,"source":"CELESTRAK","updated_at":"2026-09-22T09:00:30.213961Z"}}}